Content
SEND FEEDBACK

Daily
Averages
Monthly
Summary
United States of America

FAIRFIELD, TEXAS


Home > North America > United States > Texas
Elevation: 414 feet     Latitude: 31 44N     Longitude: 096 06W

WEATHER
 
SELECT A DAY
Number of Records: 263,852;   Date Range: 11/7/03 - 8/30/14
 
SHARE

PRINT THIS DATA

[ ← Previous Day ]
WEATHER ALMANAC - JANUARY 23, 2013
[ Next Day → ]
[ °C ]   °F
Weather ElementAverageHighLow
Temperature59.7 °F73.4 °F (3:35 pm)47.3 °F (7:15 am)
Dewpoint50.1 °F54 °F (11:35 pm)45.9 °F (6:15 am)
Humidity72.6 %97 % (8:15 am)42 % (3:35 pm)
Barometer30.27 in30.35 in (10:15 am)30.21 in (7:35 pm)
Wind Speed6.4 mph12.7 mph (1:55 pm)
Wind Gust19.6 mph (2:35 pm)
Weather ElementAverage
Visibility9.4 mi
Wind DirectionSSE (162.9 °)

Weather ElementTotal
Precipitation---
Heating Degree Days4.7 (Base 65)
Growing Degree Days10.4 (Base 50)
Averaged from 70 records on January 23, 2013
WEATHER CONDITIONS BREAKOUT
WIND DIRECTION BREAKOUT
WEATHER BY HOUR - JANUARY 23, 2013
[ °C ]   °F
Local TimeTemperatureDewpointHumidityBarometerVisibilityWind DirectionWind SpeedGust SpeedPrecipitationEventsConditions
12:35 AM55.0 °F47.7 °F76 %30.28 in10.0 miSSE (160°)5.8 mphClear
12:55 AM54.9 °F47.5 °F76 %30.28 in10.0 miSSE (160°)5.8 mphClear
1:15 AM54.9 °F47.5 °F76 %30.28 in10.0 miSSE (160°)5.8 mphClear
1:35 AM54.0 °F47.3 °F78 %30.29 in10.0 miSouth (170°)5.8 mphClear
1:55 AM53.2 °F47.3 °F80 %30.28 in10.0 miSSE (160°)4.6 mphClear
2:15 AM52.9 °F47.1 °F81 %30.28 in10.0 miSSE (160°)4.6 mphClear
2:35 AM52.2 °F47.1 °F83 %30.28 in10.0 miSSE (150°)4.6 mphClear
2:55 AM52.0 °F46.8 °F82 %30.28 in10.0 miSSE (150°)4.6 mphClear
3:15 AM51.4 °F46.8 °F84 %30.29 in10.0 miSE (140°)3.5 mphClear
3:35 AM51.1 °F46.6 °F85 %30.29 in10.0 miSE (140°)4.6 mphClear
3:55 AM50.4 °F46.4 °F86 %30.29 in10.0 miSE (140°)3.5 mphClear
4:15 AM49.6 °F46.2 °F88 %30.28 in10.0 miSE (140°)3.5 mphClear
4:35 AM49.3 °F46.0 °F89 %30.28 in10.0 miSE (140°)4.6 mphClear
4:55 AM49.3 °F46.2 °F89 %30.28 in10.0 miSE (140°)3.5 mphClear
5:15 AM49.3 °F46.4 °F90 %30.29 in10.0 miCalmClear
5:35 AM49.1 °F46.4 °F90 %30.30 in10.0 miSE (140°)3.5 mphClear
5:55 AM48.7 °F46.4 °F92 %30.30 in10.0 miCalmClear
6:15 AM48.0 °F45.9 °F92 %30.31 in10.0 miSE (130°)4.6 mphClear
6:35 AM48.2 °F46.4 °F93 %30.32 in10.0 miSE (130°)3.5 mphClear
6:55 AM47.7 °F45.9 °F93 %30.32 in7.0 miSE (140°)3.5 mphClear
7:15 AM47.3 °F45.9 °F95 %30.32 in7.0 miSE (140°)3.5 mphClear
7:35 AM47.5 °F46.2 °F95 %30.32 in3.0 miSE (140°)3.5 mphClear
7:55 AM47.8 °F46.8 °F96 %30.32 in2.5 miSE (140°)3.5 mphClear
8:15 AM49.1 °F48.2 °F97 %30.32 in2.5 miSSE (150°)4.6 mphClear
8:35 AM50.0 °F48.9 °F96 %30.32 in4.0 miSSE (150°)4.6 mphClear
8:55 AM51.1 °F50.0 °F96 %30.33 in5.0 miSSE (150°)5.8 mphClear
9:15 AM53.6 °F51.1 °F91 %30.33 in10.0 miSSE (160°)6.9 mphClear
9:35 AM56.5 °F51.6 °F84 %30.34 in10.0 miSouth (180°)9.2 mphClear
9:55 AM58.3 °F51.6 °F78 %30.34 in10.0 miSouth (180°)9.2 mphClear
10:15 AM59.9 °F52.0 °F75 %30.35 in10.0 miSSE (160°)10.4 mphClear
10:35 AM61.2 °F52.2 °F72 %30.35 in10.0 miSouth (170°)10.4 mphClear
10:55 AM62.8 °F52.7 °F70 %30.35 in10.0 miSouth (170°)11.5 mphClear
11:15 AM63.5 °F52.9 °F68 %30.35 in10.0 miSouth (190°)9.2 mph16.1 mphClear
11:35 AM64.4 °F53.2 °F67 %30.33 in10.0 miSSW (200°)9.2 mphClear
11:55 AM65.5 °F53.4 °F65 %30.33 in10.0 miSSW (200°)10.4 mphClear
12:15 PM66.9 °F53.6 °F62 %30.31 in10.0 miSouth (190°)9.2 mphClear
12:35 PM68.9 °F52.9 °F57 %30.30 in10.0 miSouth (190°)9.2 mphClear
12:55 PM69.8 °F52.2 °F53 %30.28 in10.0 miSSW (210°)10.4 mph16.1 mphClear
1:15 PM70.9 °F52.3 °F52 %30.27 in10.0 miSSE (160°)11.5 mph17.3 mphClear
1:35 PM70.9 °F51.6 °F50 %30.26 in10.0 miSSW (210°)10.4 mph18.4 mphClear
1:55 PM71.8 °F51.6 °F49 %30.26 in10.0 miSouth (180°)12.7 mph17.3 mphClear
2:15 PM72.1 °F51.1 °F47 %30.25 in10.0 miSouth (190°)9.2 mphClear
2:35 PM72.7 °F49.5 °F44 %30.24 in10.0 miSSW (200°)10.4 mph19.6 mphClear
2:55 PM72.7 °F49.1 °F43 %30.24 in10.0 miSSW (210°)10.4 mphClear
3:15 PM72.9 °F48.9 °F43 %30.24 in10.0 miSSW (210°)10.4 mphClear
3:35 PM73.4 °F49.1 °F42 %30.24 in10.0 miSSW (210°)11.5 mphClear
4:15 PM72.5 °F50.0 °F45 %30.23 in10.0 miSouth (190°)9.2 mphClear
4:35 PM72.0 °F50.2 °F46 %30.23 in10.0 miSouth (180°)8.1 mphClear
4:55 PM71.2 °F50.9 °F49 %30.23 in10.0 miSouth (180°)11.5 mphClear
5:15 PM70.5 °F50.9 °F50 %30.23 in10.0 miSouth (180°)9.2 mphClear
5:35 PM69.4 °F50.9 °F52 %30.23 in10.0 miSouth (170°)8.1 mphClear
5:55 PM67.8 °F51.1 °F55 %30.22 in10.0 miSouth (170°)5.8 mphClear
6:15 PM66.6 °F51.6 °F59 %30.22 in10.0 miSouth (170°)4.6 mphClear
6:35 PM65.3 °F51.8 °F62 %30.23 in10.0 miSouth (180°)4.6 mphClear
6:55 PM64.4 °F51.8 °F64 %30.22 in10.0 miSouth (170°)5.8 mphClear
7:15 PM64.0 °F52.0 °F65 %30.22 in10.0 miSouth (170°)5.8 mphClear
7:35 PM63.5 °F52.2 °F67 %30.21 in7.0 miSouth (180°)4.6 mphClear
7:55 PM63.0 °F52.3 °F68 %30.21 in10.0 miSouth (180°)5.8 mphClear
8:15 PM62.8 °F52.7 °F70 %30.22 in10.0 miSouth (180°)5.8 mphClear
8:35 PM62.4 °F52.7 °F70 %30.21 in10.0 miSouth (180°)5.8 mphClear
8:55 PM61.9 °F52.7 °F72 %30.22 in10.0 miSouth (170°)4.6 mphClear
9:15 PM61.9 °F52.9 °F72 %30.23 in10.0 miSSE (160°)3.5 mphClear
9:35 PM61.2 °F52.7 °F74 %30.23 in10.0 miSSE (150°)3.5 mphClear
9:55 PM60.8 °F52.9 °F75 %30.23 in10.0 miSSE (160°)3.5 mphClear
10:15 PM60.6 °F53.1 °F76 %30.23 in10.0 miSSE (160°)3.5 mphClear
10:35 PM59.9 °F53.1 °F78 %30.24 in10.0 miSouth (170°)3.5 mphClear
10:55 PM59.5 °F53.4 °F80 %30.23 in10.0 miSSE (160°)4.6 mphClear
11:15 PM59.5 °F53.6 °F81 %30.23 in10.0 miSouth (170°)4.6 mphClear
11:35 PM59.5 °F54.0 °F82 %30.22 in10.0 miSouth (170°)6.9 mphClear
11:55 PM59.2 °F54.0 °F83 %30.22 in10.0 miSSE (160°)5.8 mphClear
Hourly data recorded from KPSN, located miles away from Fairfield, Texas







STORIES FROM OUR PARTNERS